Regional Weather Roundup
Issued by NWS

Home | Current Version | Previous Version | Graphics & Text | Print | Product List | Glossary On
Versions: 1 2 3 4 5 6 7 8 9 10 11 12 13 14 15 16 17 18 19 20 21 22 23 24 25 26 27 28 29 30 31 32 33 34 35 36 37 38 39 40 41 42 43 44 45 46 47 48 49 50
000
ASUS45 KBOU 041707
RWRCO

WEATHER ROUNDUP FOR COLORADO
NATIONAL WEATHER SERVICE DENVER/BOULDER CO
1100 AM MDT FRI SEP 04 2015

NOTE: "FAIR" INDICATES FEW OR NO CLOUDS BELOW 12000 FEET WITH NO
SIGNIFICANT WEATHER AND/OR OBSTRUCTIONS TO VISIBILITY.

COZ001>005-013-030-031-041800-
...NORTHWEST COLORADO...

CITY           SKY/WX    TMP DP  RH WIND       PRES   REMARKS
CRAIG          PTSUNNY   69  46  43 E12       30.09S
HAYDEN         MOSUNNY   64  45  48 SE7       30.11F
MEEKER         PTSUNNY   71  45  39 VRB5      30.11S
MOUNT WERNER   NOT AVBL
STEAMBOAT SPGS PTSUNNY   66  47  50 SW5       30.13F
WALDEN         MOSUNNY   64  43  45 SW3       30.21F
$$

COZ006>008-011-041800-
...WEST CENTRAL VALLEYS...

CITY           SKY/WX    TMP DP  RH WIND       PRES   REMARKS
GRAND JUNCTION PTSUNNY   72  50  45 SE13      30.04S
MONTROSE       CLOUDY    68  50  52 E8        30.13F
EAGLE          CLOUDY    59  48  67 CALM      30.20S
RIFLE          PTSUNNY   65  51  60 SE3       30.10R
DELTA          RAIN      69  56  62 NE8       30.10F
NUCLA          CLOUDY    66  50  55 CALM      30.17S
$$

COZ017>023-064>068-041800-
...SOUTHWEST COLORADO...

CITY           SKY/WX    TMP DP  RH WIND       PRES   REMARKS
DURANGO        CLOUDY    62  50  64 NE8       30.21S
CORTEZ         CLOUDY    69  49  48 VRB7      30.14R
PAGOSA SPRINGS CLOUDY    61  44  54 CALM      30.29S
TELLURIDE      CLOUDY    55  50  84 E7        30.33S
WOLF CREEK PAS NOT AVBL
$$

COZ009-010-012-014-032>034-037-058>063-041800-
...CENTRAL COLORADO...

CITY           SKY/WX    TMP DP  RH WIND       PRES   REMARKS
ASPEN          PTSUNNY   61  47  59 NW6       30.21F
BUENA VISTA    CLOUDY    61  44  54 CALM      30.26S
COPPER MTN     PTSUNNY   54  34  47 S9        30.51S
BERTHOUD PASS  PTSUNNY   43  32  65 N7        30.55S
COTTONWOOD PAS CLOUDY    55  41  58 CALM      30.38R
GUNNISON       PTSUNNY   54  46  76 W7        30.30S
KREMMLING      CLOUDY    50  45  81 CALM      30.26S
LEADVILLE      CLOUDY    51  43  74 W7        30.35F
MONARCH PASS   CLOUDY    50  37  62 S7        30.61S
SALIDA         CLOUDY    65  47  52 N3        30.30S
SUNLIGHT       CLOUDY    50  45  81 CALM      30.44S
WILKERSON PASS MOSUNNY   55  27  33 CALM      30.50S
$$

COZ069>075-041800-
...SAN LUIS VALLEY/SANGRE DE CRISTO MOUNTAINS...

CITY           SKY/WX    TMP DP  RH WIND       PRES   REMARKS
ALAMOSA        CLOUDY    62  49  62 W3        30.24S
LA VETA PASS   MOSUNNY   61  41  48 CALM      30.41S
SAGUACHE       PTSUNNY   61  46  59 S6        30.28S
$$

COZ035-036-038>040-041800-
...NORTHERN COLORADO FRONT RANGE...

CITY           SKY/WX    TMP DP  RH WIND       PRES   REMARKS
DENVER INTL AP PTSUNNY   80  42  25 SW5       30.04S
DMNS CITY PARK   N/A     80  43  27 SE3G10    30.03F
AURORA         PTSUNNY   78  41  26 VRB1      30.06F
FRONT RANGE AP PTSUNNY   81  39  22 CALM      30.06S
ERIE MUNI ARPT MOSUNNY   78  47  33 E6        30.02S
BOULDER MUN AP MOSUNNY   75  46  35 CALM      30.03S
CENTENNIAL     PTSUNNY   77  39  25 SW3       30.06F
BROOMFIELD     PTSUNNY   79  48  34 E10       30.06R
FORT COLLINS   SUNNY     75  52  43 S8        30.02S
LONGMONT       SUNNY     78  48  35 SE3       30.03S
$$

COZ041-046-047-076>085-087-088-041800-
...PIKES PEAK/PALMER DIVIDE AND SOUTHERN FOOTHILLS...

CITY           SKY/WX    TMP DP  RH WIND       PRES   REMARKS
COLO. SPRINGS  PTSUNNY   76  46  34 SE5       30.11F
A. F. ACADEMY  PTSUNNY   75  45  34 VRB5      30.12F
ELLICOTT       MOSUNNY  N/A N/A N/A S10       30.10F
FALCON           N/A    N/A N/A N/A MISG        N/A
FORT CARSON    PTSUNNY   73  50  44 SE2       30.09S
LIMON          MOSUNNY   82  44  26 S6        30.06S
MONUMENT HILL  SUNNY     73  37  27 S3        30.16F
TRINIDAD       PTSUNNY   80  44  27 CALM      30.09F
$$

COZ042>045-048>051-090-091-041800-
...NORTHEAST COLORADO...

CITY           SKY/WX    TMP DP  RH WIND       PRES   REMARKS
GREELEY ARPT   SUNNY     75  54  46 S5        30.02S
AKRON          MOSUNNY   83  48  29 SW9       30.00S
BURLINGTON     SUNNY     86  48  26 W6        29.99S
WRAY           CLOUDY    84  52  33 W5        29.94S
STERLING       MOSUNNY   81  59  47 S12       29.94F
HOLYOKE        SUNNY     84  54  34 SW3       29.93S
FORT MORGAN    MOSUNNY   76  51  42 SW9       30.01R
$$

COZ086-089-092>099-041800-
...SOUTHEAST COLORADO...

CITY           SKY/WX    TMP DP  RH WIND       PRES   REMARKS
PUEBLO         PTSUNNY   76  50  40 CALM      30.01F
LA JUNTA       SUNNY     85  50  29 CALM      29.98F
LAMAR          SUNNY     85  54  34 W6        29.95F
SPRINGFIELD      N/A     88  47  24 CALM      29.99F
$$



USA.gov is the U.S. government's official web portal to all federal, state and local government web resources and services.